Погода Усть-Щугор

Погода Усть-Щугор : погода сейчас, прогноз погоды и архив. Всё, что Вы хотите узнать о погоде Усть-Щугор!

Поиск расширенной информации на нашем сайте:

Другие новости

Новости СМИ2

Главная страница сайта

Новости сайта

03.07.2017

Напоминаем, что на нашем специализированном сайте Метеоцентр.Азия вы можете получить высокодетализированные автоматические прогнозы погоды по пунктам России, СНГ и мира в авиационном формате (включающие направление и скорость ветра, видимость, явления погоды, количество и форму облачности, нижнюю и верхнюю границу облачности).


Погода Усть-Щугор - сегодня

Время (UTC), дата Ветер
(°,м/с) 
Видим.   Явления Облачность Т
(°С)
Тd
(°С)
f(%) Тe
(°С)
Pmin
(гПа)
dP
(гПа)
Po
(мм)
O2
(г/м3)
Тmin Tmax R s Состояние
почвы
09 19.09.17 тихо ()   20000 м    10/10 900 м кучево-дожд. 
[Cb cap]
+7.2 +3.4 77 +7  1018.1  757  297           
12 19.09.17 090 (В) 20000 м    10/10 1110 м кучево-дожд. 
[Cb cap]
+7.5 +3.9 78 +8  1017.8  -0.3  757  296           
15 19.09.17 050 (СВ) 10 км    6/0 средняя, верхняя 
[Ac As|Cc]
+5.4 +3.5 88 +4  1016.2  -1.6  755  298    +8.1       
03 20.09.17 020 (С) 20000 м    10/3 600 м кучево-дожд., средняя 
[Cb cap|Ac und]
+1.5 +0.7 94 1015.3  0.7  755  302  +1.3        влажная 
15 20.09.17 тихо ()   20000 м    10/10 1000 м 
[Sc]
+6.4 +3.6 82 +6  1021.4  1.9  759  298    +10.2       
03 21.09.17 360 (С) 20000 м    5/0 средняя, верхняя 
[Ac As|Cs]
-1.1 -1.4 98 -2  1029.1  1.6  765  310  -2        замёрзшая 
06 21.09.17 350 (С) 10 км    10/10 300 м 
[St]
+2.1 +0.9 92 1030.9  1.9  766  306  -2         
09 21.09.17 350 (С) 20000 м    10/10 450 м 
[St]
+3.6 +0.9 82 +2  1031.7  0.8  767  305           
12 21.09.17 350 (С) 20000 м    10/10 570 м 
[Sc]
+3.5 +1.1 84 +2  1032.8  1.1  768  305           
15 21.09.17 330 (СЗ) 10 км    10/10 300 м 
[St]
+4 +2.7 91 +5  1033  0.3  768  305    +4.1       
03 22.09.17 040 (СВ) 20000 м    10/10 400 м 
[Frnb]
+4 +2.3 89 +5  1036.3  770  306  +3.9    0.0    влажная 
06 22.09.17 020 (С) 20000 м    10/10 500 м 
[Sc]
+4.8 +2.1 83 +6  1036.9  0.6  771  305           
03 23.09.17 270 (З) 20000 м    10/10 720 м 
[Sc]
+2.5 +1.8 95 +3  1034.7  -0.8  769  307  +2.3    0.0    влажная 
06 23.09.17 240 (ЮЗ) 20000 м    10/10 300 м 
[Frnb]
+3.6 +2.1 90 +4  1033.8  -0.9  768  305           
09 23.09.17 330 (СЗ) 10 км  слаб. ливневой дождь  10/8 500 м кучево-дожд., средняя 
[Cb cap|As trans]
+4.3 +1.9 84 +4  1033.6  0.1  768  305           
12 23.09.17 тихо ()   20000 м  {ливн. осадки}  10/9 870 м кучево-дожд., средняя 
[Cb cap|Ac As]
+4.8 +2.3 84 +5  1033.5  0.1  768  304           
15 23.09.17 340 (С) 10 км    10/10 1080 м 
[Sc]
+3.8 +2 88 +5  1034.3  0.7  769  305    +5.1  0.3     
03 24.09.17 280 (З) 20000 м    10/10 500 м кучево-дожд. 
[Cb cap]
+3.4 +2.7 95 +4  1038.3  0.8  772  307  +1.1        влажная 
06 24.09.17 260 (З) 20000 м    10/10 360 м кучево-дожд. 
[Cb cap]
+6 +4.2 88 +6  1038.1  0.1  772  304           
09 24.09.17 300 (СЗ) 20000 м    9/9 930 м кучево-дожд. 
[Cb cap]
+7.5 +3.9 78 +6  1037.3  -0.8  771  302           
12 24.09.17 260 (З) 20000 м    9/9 840 м кучево-дожд. 
[Cb cap]
+7.1 +3.5 78 +6  1035.6  -1.6  770  302           
15 24.09.17 230 (ЮЗ) 10 км    10/10 1050 м 
[Sc]
+6.2 +3.1 81 +5  1033.5  -2.2  768  302    +8.3       
03 25.09.17 360 (С) 5{10}  10 км  слаб. ливневой дождь  10/10 570 м кучево-дожд. 
[Cb cap]
+5.6 +4.2 91 +4  1028.8  1.2  765  301  +5.1      влажная 
06 25.09.17 360 (С) 20000 м  {ливн. осадки}  10/10 360 м кучево-дожд. 
[Cb cap]
+5.9 +4.2 89 +5  1030.3  1.4  766  301           
09 25.09.17 010 (С) 10 км  слаб. ливневой дождь  10/9 1260 м кучево-дожд., средняя 
[Cb cap|Ac As]
+6.6 +4 83 +5  1031.4  1.1  767  301           
Время (UTC), дата Ветер
(°,м/с) 
Видим.   Явления Облачность Т
(°С)
Тd
(°С)
f(%) Тe
(°С)
Pmin
(гПа)
dP
(гПа)
Po
(мм)
O2
(г/м3)
Тmin Tmax R s Состояние
почвы

Для получения пояснительной информации подведите курсор к названию столбца.

ПОГОДА Усть-Щугор - архив

Всё, что Вы хотите узнать о погоде Усть-Щугор - удобно и подробно!

Выберите нужную дату (начиная с 1 января 2015* года) и нажмите кнопку "Найти".
Будут отображены архивные сводки погоды по пункту Усть-Щугор, начиная с указанной даты.


Отображать данные в формате CSV (для использования в таблицах Excel)


Внимание! Наш архив погоды предназначен исключительно для личного некоммерческого использования в познавательных целях. Если Вам необходимы официальные справки о состоянии погоды (для производственных, юридических, коммерческих и т.п. целей), обращайтесь в органы Росгидромета.

*Примечание: данная дата относится к архиву по метеостанциям СССР (Россия, СНГ, Балтия).
Архив по метеостанциям Зарубежной Европы и Азии (кроме Китая) хранится 10 дней, по другим регионам земного шара (Китай, Африка, Америка, Австралия, Океания) - 1 день.

Усть-Щугор - район местоположения метеостанции


Название, широта, долгота, высота метеостанции:
Усть-Щугор 64.3°ш. 57.6°д. 75 м над ур. моря [Российская Федерация]

Дополнительная информация

В oтличие oт бoльшинства пoгoдных сайтoв мы публикуем пoдрoбную метеoинфoрмацию в детальнoм прoфессиoнальнoм фoрмате.

Характеристики температуры и влажнoсти вoздуха измеряются на высoте 2 м в тени вдали oт зданий и деревьев.
Скoрoсть ветра измеряется на высoте 10 м (на урoвне рoста челoвека скoрoсть ветра ниже в 1.5-2 раза). Если метеoстанция нахoдится в гoрoде или в лесу, тo скoрoсть ветра занижена на 2-4 м/с пo сравнению с oткрытым местoм. Скoрoсть ветра над акватoриями крупных рек и oзёр, а также на вершинах хoлмoв на 2-5 м/с выше, чем в oбычных услoвиях.
Атмoсфернoе давление в разных тoчках местнoсти мoжет значительнo oтличаться oт давления на метеoстанции, в зависимoсти oт услoвий рельефа (при пoдъёме на 10 м давление пoнижается примернo на 1 мм рт.ст.).